Temp
-8 -8 -8 -8 -7 -8 -8 -8 -7 -7 -7 -7 -5 -5 -6 -6 -5 -5 -5 -5 -5 -5 -5 -5 -5 -6 -6 -7 -7 -8 -8 -8 -8 -8 -8 -8 -8 -8 -8 -9 -8 -8 -9 -9 -9 -8 -8 -8 -8
-8 -8 -8 -8 -8 -8 -7 -7 -7 -7 -7 -7 -7 -7 -7 -7 -6 -5 -5 -5 -6 -6 -5 -5 -6 -6 -7 -7 -7 -8 -8 -8 -8 -8 -8 -8 -8 -8 -8 -8 -8 -8 -8 -8 -8 -8 -8 -8 -8
-8 -8 -9 -9 -8 -7 -7 -7 -7 -8 -8 -8 -7 -7 -8 -8 -7 -6 -6 -5 -6 -6 -6 -6 -6 -6 -7 -7 -7 -7 -7 -7 -7 -7 -7 -7 -8 -8 -8 -8 -8 -8 -8 -8 -8 -8 -8 -8 -8
-8 -8 -9 -8 -8 -8 -7 -6 -7 -8 -8 -9 -8 -7 -7 -7 -7 -7 -6 -6 -6 -6 -6 -6 -7 -7 -7 -7 -7 -7 -7 -7 -7 -7 -7 -8 -8 -8 -8 -8 -8 -8 -8 -8 -8 -8 -8 -8 -8
-8 -8 -9 -9 -9 -9 -8 -7 -7 -7 -9 -9 -8 -7 -7 -7 -7 -6 -6 -6 -6 -6 -6 -6 -7 -7 -6 -7 -7 -7 -7 -7 -7 -7 -7 -8 -7 -8 -8 -8 -8 -8 -8 -8 -8 -9 -8 -8 -8
-8 -8 -9 -9 -9 -9 -8 -7 -7 -7 -7 -8 -9 -7 -7 -7 -7 -7 -7 -6 -6 -7 -7 -7 -6 -6 -6 -7 -7 -7 -7 -7 -7 -7 -7 -8 -8 -8 -8 -8 -8 -8 -8 -9 -9 -9 -9 -9 -9
-8 -8 -9 -10 -10 -9 -8 -8 -8 -9 -8 -8 -9 -7 -6 -7 -7 -7 -7 -7 -7 -7 -7 -7 -6 -6 -7 -7 -7 -7 -7 -7 -7 -7 -8 -8 -8 -8 -8 -8 -8 -9 -9 -9 -9 -9 -9 -9 -9
-9 -8 -9 -11 -10 -9 -8 -8 -9 -10 -9 -9 -8 -8 -7 -7 -7 -8 -8 -7 -7 -7 -7 -7 -7 -7 -7 -7 -7 -7 -7 -7 -8 -8 -8 -8 -8 -8 -9 -9 -9 -9 -9 -10 -10 -10 -10 -10 -10
-9 -8 -10 -10 -10 -10 -9 -8 -9 -9 -9 -8 -7 -8 -8 -8 -8 -8 -8 -8 -7 -7 -7 -7 -7 -7 -7 -7 -7 -7 -7 -8 -7 -8 -8 -8 -9 -9 -10 -10 -10 -10 -9 -9 -10 -10 -10 -11 -11
-9 -8 -10 -10 -10 -9 -8 -8 -9 -9 -9 -10 -8 -8 -8 -8 -8 -7 -8 -8 -8 -8 -8 -7 -7 -7 -7 -7 -7 -7 -7 -7 -8 -8 -9 -9 -9 -9 -9 -9 -9 -9 -10 -11 -11 -11 -11 -11 -11
-9 -8 -10 -10 -10 -9 -9 -8 -8 -8 -9 -9 -8 -8 -8 -9 -9 -8 -7 -6 -6 -7 -6 -6 -7 -7 -7 -7 -7 -7 -8 -8 -9 -9 -9 -9 -9 -9 -9 -10 -10 -10 -11 -11 -11 -11 -10 -10 -10
-9 -9 -10 -10 -10 -9 -9 -8 -8 -8 -9 -9 -10 -9 -9 -9 -9 -8 -8 -6 -6 -7 -7 -7 -7 -7 -7 -8 -8 -8 -8 -9 -9 -9 -9 -9 -10 -10 -10 -10 -10 -11 -11 -11 -11 -10 -10 -11 -10
-9 -9 -10 -10 -10 -10 -9 -8 -8 -8 -9 -9 -10 -9 -9 -8 -8 -8 -8 -7 -7 -8 -9 -9 -8 -8 -7 -8 -8 -8 -8 -9 -9 -9 -9 -9 -10 -10 -10 -10 -10 -11 -11 -11 -11 -11 -11 -11 -11
-8 -9 -9 -10 -10 -10 -9 -8 -8 -9 -9 -9 -9 -9 -8 -7 -7 -8 -9 -8 -8 -8 -8 -8 -8 -10 -9 -8 -8 -9 -9 -9 -9 -9 -9 -9 -10 -11 -11 -11 -11 -11 -11 -11 -11 -11 -10 -10 -11
-8 -8 -9 -10 -10 -10 -9 -8 -8 -9 -9 -9 -9 -9 -8 -8 -8 -7 -8 -9 -8 -8 -8 -9 -9 -10 -10 -10 -10 -10 -11 -10 -10 -10 -10 -11 -11 -11 -11 -11 -12 -12 -11 -11 -11 -11 -11 -11 -11
-8 -8 -9 -9 -10 -10 -10 -9 -9 -10 -9 -9 -10 -8 -8 -8 -8 -9 -8 -8 -9 -9 -9 -9 -9 -10 -10 -10 -10 -10 -11 -11 -11 -11 -11 -11 -11 -11 -11 -12 -12 -11 -11 -11 -11 -11 -11 -11 -11
-8 -9 -9 -9 -9 -10 -10 -9 -10 -9 -9 -10 -9 -9 -8 -9 -9 -9 -9 -9 -9 -9 -9 -9 -9 -9 -9 -9 -9 -10 -10 -11 -11 -11 -11 -11 -11 -11 -12 -12 -11 -11 -11 -11 -11 -11 -11 -11 -11
-9 -9 -9 -10 -10 -10 -10 -9 -9 -9 -9 -10 -9 -9 -9 -10 -9 -9 -10 -10 -10 -10 -9 -10 -10 -9 -9 -9 -10 -10 -10 -10 -10 -11 -11 -11 -11 -11 -12 -11 -11 -11 -11 -11 -11 -11 -11 -11 -11
-9 -9 -10 -10 -10 -9 -9 -9 -9 -9 -10 -10 -10 -9 -10 -9 -9 -10 -10 -10 -10 -10 -10 -10 -10 -10 -9 -9 -9 -9 -9 -10 -10 -10 -11 -11 -11 -11 -11 -11 -11 -11 -11 -11 -11 -12 -11 -12 -12
-8 -9 -9 -10 -10 -9 -9 -9 -10 -10 -10 -10 -10 -10 -10 -9 -10 -10 -10 -10 -10 -10 -10 -10 -10 -10 -9 -9 -9 -10 -10 -10 -10 -11 -11 -11 -11 -11 -11 -11 -11 -11 -12 -12 -12 -12 -12 -13 -13
-8 -8 -9 -9 -9 -9 -8 -9 -10 -10 -10 -10 -10 -10 -10 -10 -10 -10 -10 -10 -10 -10 -11 -10 -10 -10 -9 -9 -10 -10 -10 -10 -10 -11 -11 -11 -11 -11 -11 -12 -12 -12 -12 -12 -12 -13 -13 -13 -13
-8 -9 -8 -9 -9 -9 -9 -9 -10 -9 -9 -9 -10 -10 -10 -10 -10 -10 -10 -10 -10 -10 -10 -10 -10 -10 -10 -10 -10 -10 -10 -10 -10 -10 -11 -11 -11 -12 -12 -12 -12 -12 -12 -12 -13 -13 -13 -13 -13
-8 -9 -8 -8 -9 -9 -10 -9 -9 -9 -9 -9 -10 -9 -10 -10 -10 -10 -10 -10 -10 -10 -10 -10 -10 -10 -10 -10 -10 -10 -11 -11 -11 -11 -11 -12 -12 -12 -12 -12 -12 -12 -12 -12 -13 -13 -13 -13 -13
-9 -9 -8 -8 -9 -9 -9 -10 -9 -9 -9 -9 -9 -9 -10 -10 -10 -10 -10 -11 -11 -11 -10 -10 -10 -10 -10 -10 -10 -11 -11 -11 -11 -11 -12 -12 -12 -12 -12 -12 -12 -12 -12 -12 -13 -13 -14 -13 -13
-8 -9 -9 -8 -8 -8 -9 -9 -9 -9 -9 -9 -9 -10 -10 -10 -10 -10 -10 -11 -11 -11 -11 -10 -10 -10 -11 -11 -11 -11 -11 -11 -11 -11 -12 -12 -12 -12 -11 -11 -11 -12 -12 -12 -13 -14 -13 -13 -13
-9 -9 -9 -8 -8 -8 -9 -8 -9 -9 -9 -9 -9 -8 -9 -10 -10 -10 -10 -11 -11 -11 -11 -11 -11 -10 -10 -10 -11 -11 -11 -11 -11 -12 -11 -11 -11 -11 -11 -11 -12 -12 -12 -13 -13 -14 -14 -14 -13
-9 -9 -9 -9 -8 -8 -8 -8 -8 -8 -9 -9 -9 -9 -10 -10 -10 -10 -11 -11 -11 -10 -10 -11 -11 -10 -10 -10 -11 -11 -11 -11 -11 -11 -11 -11 -11 -11 -12 -12 -12 -13 -13 -14 -14 -14 -14 -14 -14
-10 -10 -9 -9 -8 -8 -8 -8 -8 -8 -8 -9 -9 -10 -9 -11 -11 -11 -11 -11 -11 -11 -11 -11 -11 -10 -10 -10 -11 -11 -11 -11 -11 -11 -11 -11 -11 -12 -12 -12 -12 -13 -13 -14 -14 -14 -14 -14 -14
-10 -9 -10 -9 -8 -8 -8 -8 -8 -8 -9 -9 -9 -9 -10 -11 -11 -11 -11 -11 -11 -11 -12 -11 -11 -11 -11 -11 -11 -11 -11 -11 -11 -11 -11 -12 -12 -12 -12 -12 -13 -13 -13 -14 -14 -14 -14 -14 -14
-11 -11 -10 -10 -9 -8 -8 -7 -9 -9 -9 -9 -10 -11 -11 -11 -11 -11 -11 -11 -11 -12 -12 -12 -12 -12 -11 -11 -11 -11 -11 -11 -11 -11 -12 -12 -12 -12 -12 -13 -13 -14 -14 -14 -15 -15 -15 -14 -14
Height
5925 5925 5925 5926 5926 5924 5921 5922 5925 5925 5922 5920 5918 5916 5917 5918 5919 5921 5918 5918 5916 5915 5916 5914 5912 5912 5912 5913 5913 5914 5915 5914 5915 5915 5914 5914 5914 5913 5913 5912 5910 5910 5908 5908 5907 5905 5904 5902 5901
5924 5925 5925 5924 5924 5924 5922 5925 5924 5924 5923 5921 5918 5917 5917 5919 5918 5918 5917 5917 5916 5915 5915 5913 5912 5912 5912 5912 5913 5913 5914 5914 5915 5914 5913 5913 5912 5911 5911 5910 5909 5908 5907 5905 5904 5903 5901 5900 5898
5923 5924 5923 5921 5925 5924 5924 5924 5923 5923 5924 5924 5922 5917 5915 5916 5916 5917 5916 5915 5915 5914 5914 5913 5912 5912 5912 5912 5912 5913 5913 5914 5914 5914 5913 5912 5911 5910 5909 5908 5907 5906 5905 5904 5903 5902 5900 5898 5896
5920 5922 5922 5921 5923 5923 5923 5923 5922 5922 5921 5924 5925 5921 5917 5916 5915 5915 5914 5913 5913 5913 5912 5913 5912 5912 5912 5912 5912 5913 5913 5913 5913 5913 5912 5911 5910 5909 5908 5907 5905 5904 5903 5902 5901 5899 5897 5895 5894
5918 5920 5920 5922 5922 5920 5923 5924 5921 5922 5919 5919 5922 5920 5917 5914 5911 5913 5913 5912 5911 5911 5911 5912 5911 5911 5911 5911 5911 5912 5912 5912 5912 5912 5911 5910 5909 5908 5907 5906 5905 5903 5901 5900 5897 5895 5893 5891 5890
5917 5919 5920 5920 5921 5918 5921 5921 5919 5916 5916 5918 5921 5919 5916 5915 5911 5911 5911 5911 5909 5910 5910 5911 5911 5910 5910 5910 5910 5911 5911 5911 5911 5911 5909 5909 5908 5906 5905 5904 5903 5900 5898 5896 5894 5892 5890 5887 5884
5915 5917 5919 5918 5918 5918 5918 5917 5916 5914 5913 5912 5917 5920 5918 5914 5910 5908 5908 5909 5909 5910 5910 5910 5910 5910 5910 5910 5910 5911 5910 5910 5909 5908 5907 5906 5905 5903 5902 5900 5898 5896 5894 5892 5890 5889 5886 5882 5879
5912 5915 5917 5913 5916 5916 5916 5914 5915 5916 5914 5916 5917 5919 5919 5914 5910 5905 5906 5909 5909 5909 5909 5910 5911 5911 5911 5911 5910 5910 5909 5908 5907 5906 5905 5904 5902 5901 5898 5896 5894 5892 5889 5886 5883 5881 5879 5875 5872
5909 5914 5915 5914 5914 5914 5915 5915 5914 5915 5914 5914 5915 5918 5918 5913 5909 5904 5905 5907 5907 5908 5910 5911 5911 5912 5911 5909 5908 5908 5907 5907 5907 5905 5903 5902 5900 5898 5895 5893 5890 5887 5883 5881 5877 5873 5870 5867 5863
5906 5912 5913 5913 5912 5911 5912 5912 5911 5913 5912 5914 5916 5917 5913 5914 5911 5907 5905 5906 5906 5907 5909 5910 5912 5911 5909 5909 5907 5907 5906 5905 5905 5903 5901 5898 5897 5894 5891 5888 5885 5882 5878 5875 5871 5868 5864 5860 5857
5904 5911 5910 5911 5907 5908 5909 5910 5910 5910 5909 5909 5909 5909 5912 5913 5912 5907 5908 5909 5909 5909 5909 5907 5907 5908 5908 5906 5906 5905 5904 5903 5903 5901 5898 5895 5891 5888 5885 5882 5879 5877 5874 5869 5865 5860 5856 5852 5848
5902 5907 5906 5907 5905 5906 5909 5911 5913 5910 5910 5906 5907 5913 5916 5915 5913 5911 5912 5911 5908 5908 5908 5907 5906 5906 5906 5906 5905 5903 5901 5900 5899 5897 5894 5890 5887 5883 5880 5877 5874 5870 5866 5860 5856 5850 5846 5842 5838
5898 5900 5901 5904 5905 5906 5906 5909 5910 5910 5908 5908 5911 5914 5914 5916 5913 5914 5916 5914 5909 5907 5906 5906 5905 5906 5907 5906 5904 5903 5899 5895 5894 5892 5889 5885 5881 5877 5873 5870 5866 5861 5856 5851 5846 5840 5835 5830 5825
5894 5898 5902 5904 5904 5903 5904 5907 5909 5908 5907 5907 5909 5912 5910 5913 5911 5912 5914 5913 5906 5906 5904 5902 5899 5902 5904 5904 5903 5900 5898 5893 5889 5887 5883 5878 5873 5870 5867 5863 5859 5853 5847 5841 5836 5830 5826 5820 5814
5893 5895 5898 5902 5901 5901 5902 5903 5906 5903 5905 5905 5906 5905 5906 5910 5909 5908 5910 5908 5903 5904 5902 5903 5900 5901 5902 5902 5899 5895 5892 5892 5887 5883 5880 5875 5871 5866 5861 5856 5851 5845 5840 5834 5829 5824 5818 5812 5804
5891 5893 5894 5899 5901 5901 5900 5901 5904 5903 5904 5904 5904 5901 5903 5907 5907 5906 5904 5903 5902 5901 5900 5897 5898 5897 5896 5896 5896 5892 5886 5886 5884 5879 5877 5872 5867 5861 5855 5850 5844 5839 5834 5828 5823 5816 5809 5802 5795
5889 5890 5891 5896 5899 5899 5896 5897 5900 5899 5899 5901 5901 5901 5901 5904 5904 5903 5900 5898 5900 5899 5896 5895 5896 5896 5895 5893 5891 5888 5882 5882 5880 5876 5871 5866 5860 5852 5848 5843 5837 5832 5826 5820 5812 5806 5800 5792 5783
5886 5887 5888 5891 5893 5891 5892 5895 5896 5895 5895 5898 5898 5900 5900 5901 5899 5898 5898 5899 5898 5896 5893 5892 5891 5889 5889 5888 5885 5882 5876 5874 5873 5869 5863 5856 5849 5845 5840 5835 5830 5824 5817 5811 5805 5797 5788 5780 5771
5884 5884 5886 5888 5888 5889 5891 5893 5893 5890 5892 5894 5895 5896 5898 5897 5896 5896 5896 5895 5894 5893 5891 5890 5887 5885 5883 5880 5875 5870 5868 5867 5864 5859 5854 5849 5843 5840 5835 5828 5822 5816 5810 5804 5796 5786 5776 5766 5759
5880 5882 5886 5888 5887 5887 5888 5889 5890 5889 5891 5893 5894 5895 5895 5894 5892 5893 5893 5893 5893 5891 5888 5885 5882 5879 5877 5874 5870 5869 5866 5864 5859 5853 5848 5843 5838 5833 5826 5822 5816 5809 5802 5793 5784 5774 5765 5756 5748
5877 5880 5882 5883 5881 5882 5884 5884 5886 5887 5889 5890 5891 5893 5893 5892 5889 5891 5891 5891 5891 5889 5887 5884 5877 5875 5874 5871 5869 5865 5862 5858 5851 5847 5842 5837 5831 5825 5821 5815 5808 5800 5791 5781 5771 5763 5756 5750 5743
5873 5876 5877 5878 5879 5879 5879 5880 5881 5883 5883 5886 5887 5889 5889 5888 5887 5888 5888 5888 5888 5886 5883 5878 5876 5873 5870 5867 5865 5860 5857 5851 5846 5842 5836 5830 5825 5819 5814 5807 5799 5790 5781 5769 5761 5754 5748 5743 5736
5873 5868 5870 5873 5875 5875 5876 5876 5877 5878 5880 5882 5883 5884 5884 5885 5884 5884 5885 5885 5885 5883 5880 5877 5875 5871 5868 5863 5859 5854 5849 5843 5839 5832 5827 5821 5816 5812 5805 5797 5789 5779 5770 5762 5754 5746 5739 5734 5727
5864 5862 5864 5866 5868 5869 5872 5872 5872 5874 5875 5875 5878 5879 5880 5881 5881 5881 5881 5880 5879 5879 5877 5875 5871 5867 5862 5858 5852 5846 5839 5834 5829 5824 5819 5813 5809 5803 5796 5788 5778 5770 5762 5753 5744 5737 5731 5725 5719
5858 5859 5859 5861 5864 5864 5867 5868 5866 5871 5870 5869 5871 5873 5876 5877 5876 5877 5876 5876 5874 5874 5872 5869 5866 5862 5856 5851 5845 5838 5832 5827 5820 5815 5810 5806 5802 5794 5786 5777 5768 5760 5752 5744 5737 5730 5723 5717 5712
5851 5853 5854 5855 5858 5861 5860 5859 5860 5864 5867 5867 5866 5868 5869 5872 5873 5873 5873 5871 5870 5868 5865 5862 5859 5854 5848 5842 5835 5829 5824 5818 5813 5806 5802 5797 5790 5783 5775 5767 5759 5751 5743 5736 5729 5722 5716 5710 5704
5846 5847 5851 5849 5850 5852 5853 5854 5857 5861 5862 5863 5863 5864 5865 5866 5867 5868 5866 5866 5865 5862 5859 5856 5852 5847 5839 5833 5827 5821 5815 5810 5805 5799 5795 5788 5782 5774 5766 5758 5749 5741 5734 5727 5720 5713 5707 5702 5696
5838 5843 5844 5845 5845 5845 5848 5849 5851 5856 5858 5859 5859 5860 5861 5861 5862 5861 5861 5861 5858 5856 5852 5848 5845 5840 5831 5825 5818 5814 5809 5804 5797 5793 5787 5781 5774 5766 5757 5749 5741 5733 5726 5719 5712 5706 5700 5694 5688
5833 5834 5836 5838 5838 5838 5842 5844 5846 5848 5850 5852 5854 5855 5856 5858 5858 5857 5856 5854 5851 5847 5844 5841 5837 5831 5825 5819 5814 5810 5805 5798 5792 5787 5780 5773 5765 5757 5748 5740 5732 5724 5717 5710 5704 5698 5692 5687 5680
5825 5826 5828 5829 5833 5834 5835 5840 5841 5843 5844 5845 5847 5849 5852 5853 5852 5850 5849 5847 5844 5841 5838 5835 5831 5826 5820 5815 5809 5804 5798 5792 5786 5779 5772 5764 5757 5748 5740 5730 5722 5715 5708 5702 5695 5690 5685 5679 5673
Wind_Speed
8 6 4 3 7 9 7 6 2 4 4 4 4 6 10 9 9 9 8 8 8 7 9 9 7 6 6 4 4 6 7 8 10 12 13 14 15 17 18 19 20 20 21 22 22 22 22 22 21
10 8 7 7 7 6 7 6 10 6 7 1 3 6 8 9 10 11 10 8 10 8 10 7 5 5 6 5 5 6 7 10 12 13 14 15 16 17 17 18 19 20 21 22 22 22 21 21 20
12 11 10 12 8 5 12 6 6 3 8 4 2 3 7 7 11 11 11 9 8 8 9 8 6 6 5 5 6 7 9 10 12 13 14 15 15 16 17 18 18 19 19 19 18 17 16 17 18
13 12 11 10 8 10 13 12 0 2 9 8 6 5 3 5 8 11 11 10 9 8 8 8 8 7 6 7 7 8 10 11 12 14 15 16 16 17 17 16 15 14 14 15 17 18 19 21 22
17 14 11 9 9 14 8 17 15 12 6 12 5 10 2 7 9 12 13 12 10 9 7 8 7 6 6 6 8 9 11 12 14 15 16 16 16 15 14 14 15 16 17 19 20 22 24 25 27
20 15 13 8 7 13 17 19 15 17 8 17 11 13 4 5 6 10 14 14 12 10 7 7 5 5 6 7 8 10 11 12 14 14 13 13 13 14 15 17 18 19 21 23 25 26 27 28 28
22 18 15 9 9 8 13 18 9 14 18 18 20 8 10 4 5 8 12 13 8 6 5 5 5 7 8 8 9 9 10 10 11 10 11 13 14 15 17 18 20 22 24 25 26 27 28 29 30
23 21 18 13 10 11 12 3 7 14 12 10 9 11 7 3 5 3 11 9 5 2 3 6 8 9 7 7 7 8 8 9 9 10 12 14 15 17 19 20 21 22 23 24 26 27 28 29 30
27 23 19 10 11 15 14 16 7 10 14 16 13 3 4 6 5 4 3 2 3 6 8 8 8 8 8 7 8 10 9 10 11 13 14 16 17 17 19 20 21 22 24 26 30 33 35 36 38
27 25 18 13 13 13 15 11 7 11 17 20 16 14 27 7 13 2 1 4 4 2 1 4 8 9 10 10 11 10 12 14 14 14 15 15 15 16 19 21 23 26 29 32 35 37 38 39 41
26 25 23 14 15 19 18 17 14 14 18 18 21 22 22 7 9 10 7 1 2 1 2 4 6 10 11 12 11 12 14 14 15 14 15 18 21 24 26 27 29 31 33 36 38 39 40 42 44
26 25 26 25 18 23 23 23 23 16 16 18 20 25 10 9 8 9 13 10 5 6 8 8 8 12 14 13 14 13 12 12 16 17 18 20 23 26 29 31 34 36 39 42 44 46 48 49 50
24 32 29 22 20 22 20 20 23 15 15 15 17 17 10 6 6 2 7 6 1 8 10 10 13 17 20 17 14 16 17 13 18 21 23 26 29 32 36 38 41 42 43 46 48 49 49 50 52
21 30 31 25 25 29 28 28 12 17 26 20 15 13 11 5 4 3 2 11 10 13 15 25 16 18 26 23 20 21 26 25 23 26 28 32 35 38 41 43 44 44 46 47 47 49 51 53 55
12 23 31 30 29 28 28 29 21 26 24 12 6 12 12 6 4 6 11 14 17 18 19 25 21 12 18 20 30 33 27 28 26 26 30 33 34 40 44 45 45 44 43 45 47 50 53 56 58
12 11 26 33 30 29 32 27 14 19 16 8 8 14 15 9 7 16 15 14 18 17 18 24 24 26 34 29 25 32 17 22 26 29 31 34 40 43 42 40 40 41 44 47 50 51 54 59 63
10 8 14 30 32 31 33 25 10 14 9 8 9 13 14 9 11 13 13 21 23 21 23 29 29 24 25 27 27 28 16 20 25 31 33 39 43 41 37 37 40 44 49 49 52 55 56 61 59
10 14 17 21 26 30 25 13 8 4 5 8 12 14 14 13 16 15 18 23 24 24 26 32 37 37 30 28 24 21 21 27 31 36 37 43 43 39 37 40 45 47 50 53 54 55 56 56 51
17 21 28 28 23 25 23 13 8 6 5 8 14 16 11 17 13 19 24 25 27 30 31 36 40 40 33 30 29 30 32 35 39 41 41 43 36 36 39 43 47 49 52 54 55 54 54 52 51
23 23 23 27 24 25 21 14 11 10 5 6 14 17 17 19 16 20 22 26 30 33 36 40 44 40 32 31 32 32 33 37 39 40 40 32 34 37 41 45 48 51 52 53 54 52 51 46 43
23 25 28 32 31 27 30 19 18 16 11 15 11 19 21 20 20 22 22 26 31 34 37 41 40 30 31 30 32 34 37 37 37 35 30 32 35 39 43 46 49 51 52 53 53 50 44 41 40
24 25 27 30 31 28 24 21 21 20 17 17 13 6 11 16 20 21 24 28 33 34 35 38 30 30 32 33 33 35 37 35 32 31 32 34 37 41 44 47 50 51 52 53 52 47 44 41 43
22 29 28 27 28 32 27 26 24 23 16 19 20 16 13 15 18 21 23 28 30 31 35 35 30 32 33 34 35 37 35 33 34 33 35 36 40 44 45 49 51 53 52 53 51 48 43 41 44
27 32 31 30 30 35 31 31 26 24 25 26 23 21 19 15 18 17 19 25 29 31 33 34 33 37 36 36 36 35 33 35 35 36 38 39 44 47 48 53 56 53 53 55 51 47 44 42 43
27 30 33 33 31 33 35 35 38 32 32 35 33 37 34 24 23 20 21 27 30 34 35 37 37 40 37 35 33 31 32 35 36 38 39 43 47 50 54 57 57 54 55 51 46 43 41 42 44
30 33 33 32 30 30 30 36 43 41 40 40 37 33 31 29 26 26 26 31 35 40 38 38 38 38 40 42 38 35 35 39 40 41 43 47 51 54 57 57 53 55 53 45 44 44 44 44 46
32 32 27 28 28 27 28 33 34 32 30 29 25 24 19 18 20 23 29 35 34 37 39 40 40 45 47 46 41 38 40 43 42 44 45 48 53 55 55 52 55 52 49 44 45 44 44 44 46
33 31 30 29 32 30 29 28 29 25 23 25 18 24 21 15 22 29 33 34 34 38 42 39 45 45 47 46 44 42 43 39 40 42 45 50 53 52 50 53 52 51 47 46 45 43 44 45 46
34 34 34 32 35 33 30 30 27 27 27 26 24 20 18 20 25 27 30 33 29 34 37 34 34 43 49 48 44 44 42 40 41 44 48 51 50 51 52 52 52 50 47 44 43 43 44 44 45
36 39 39 37 35 34 32 28 25 27 31 29 27 26 27 26 23 25 29 29 30 33 36 28 36 43 50 51 47 45 39 40 44 47 49 48 50 51 52 52 52 50 46 42 41 40 43 44 43
Wind_Direction
192 198 190 121 131 115 135 213 273 275 300 291 283 59 30 5 8 15 18 19 18 4 338 344 350 333 310 296 293 299 304 307 303 303 306 308 308 309 309 309 310 309 308 305 303 301 301 301 301
199 198 210 192 179 157 201 128 153 230 262 249 85 58 33 349 357 360 5 357 1 347 329 340 337 322 304 305 302 298 301 302 299 301 305 308 310 311 311 310 310 308 307 305 306 308 310 310 310
202 196 211 226 209 198 240 174 123 138 219 260 305 90 54 2 342 352 344 341 338 328 322 331 324 306 309 308 301 304 308 308 308 312 316 317 316 314 313 312 309 309 310 311 313 315 313 309 303
211 205 225 237 248 255 264 261 33 8 269 233 262 241 68 32 349 333 320 312 306 303 309 308 300 303 314 321 325 323 319 318 317 319 317 316 315 314 315 314 316 317 315 314 311 307 304 302 300
216 211 214 231 259 268 269 283 298 323 237 204 255 250 342 12 351 319 304 295 285 279 291 295 297 321 331 329 318 316 322 323 321 317 316 317 319 321 320 317 313 310 308 306 302 300 298 297 295
216 215 205 236 266 287 266 271 289 317 205 237 217 235 223 299 310 306 293 279 279 278 280 291 308 320 310 308 313 325 326 322 317 317 322 322 322 318 313 311 308 307 305 303 301 298 296 294 291
214 212 201 214 252 288 289 273 324 344 321 193 211 235 262 266 307 319 300 286 281 282 299 310 308 301 304 315 326 325 314 314 314 320 316 311 310 307 305 304 304 303 301 298 298 299 300 298 292
214 210 194 212 238 250 271 43 53 4 335 345 340 228 239 335 342 315 290 286 264 285 334 319 315 317 318 320 315 303 304 304 305 302 301 305 308 308 305 303 302 298 295 295 297 296 295 295 294
220 206 197 222 247 253 261 277 324 352 358 336 0 148 41 342 274 155 223 318 55 18 353 328 313 307 297 286 283 281 286 293 297 299 301 308 311 308 305 301 297 296 298 302 306 308 307 306 303
214 204 194 214 244 246 248 254 324 338 332 335 48 9 358 6 317 34 169 148 137 104 347 303 317 303 295 291 279 289 296 295 301 309 311 310 306 303 306 307 307 310 311 310 305 301 299 298 295
216 203 207 207 239 246 249 260 297 317 322 330 339 354 345 46 327 350 335 328 186 10 235 272 286 279 278 278 294 294 296 310 313 311 308 311 316 317 316 316 314 311 307 305 303 300 297 294 294
216 208 219 220 224 248 261 272 280 299 314 322 326 329 335 319 21 7 336 316 356 346 317 287 272 276 275 286 295 298 304 311 305 308 307 314 316 316 317 314 311 309 309 308 305 302 303 304 303
216 215 220 227 238 249 262 273 280 302 312 317 302 318 320 334 28 303 325 295 51 32 15 354 329 311 299 295 296 305 305 308 312 314 312 316 317 318 318 316 314 311 307 305 305 309 311 311 310
220 216 217 216 234 250 262 269 277 315 312 303 284 293 287 313 49 156 344 4 18 352 343 346 306 335 337 323 324 330 316 316 317 312 313 317 321 319 315 313 310 309 310 312 313 314 312 311 309
261 221 218 219 231 248 260 264 288 307 310 296 259 268 278 356 69 16 4 343 24 358 2 19 22 19 347 328 318 319 311 300 304 308 310 312 310 310 310 312 311 311 312 312 312 310 309 310 307
245 243 227 218 229 251 264 268 284 280 278 248 223 268 288 347 2 2 342 358 2 6 8 0 342 329 326 327 325 315 318 308 304 303 304 304 303 307 310 311 313 313 311 310 311 312 311 309 306
226 228 218 223 229 249 254 256 241 264 261 224 254 280 310 340 348 6 357 9 3 7 6 0 344 332 313 310 318 311 302 311 300 298 294 298 304 311 313 312 311 313 314 315 314 315 309 307 306
212 197 181 188 200 217 225 218 239 240 222 244 275 286 298 323 347 18 10 357 354 355 355 348 347 336 324 318 322 317 317 313 307 306 303 306 312 312 312 311 315 314 315 313 313 311 308 309 309
214 196 176 181 205 221 213 207 245 230 296 302 291 296 306 324 349 341 345 347 348 342 341 333 335 331 323 323 329 326 322 314 310 308 306 306 306 306 310 314 315 314 312 311 312 312 311 309 309
218 217 195 196 216 224 211 207 230 231 240 265 281 290 300 314 318 324 332 335 331 332 331 327 327 325 322 325 323 318 313 308 306 302 303 304 304 308 314 314 312 312 312 312 314 313 316 311 311
225 223 205 203 221 236 225 216 221 222 237 259 263 252 269 290 306 317 321 326 323 322 321 322 325 323 319 319 314 312 311 307 304 300 302 306 309 312 312 310 311 313 313 314 316 317 318 314 311
231 229 229 224 229 235 243 232 233 243 246 249 247 266 264 276 289 301 314 318 317 311 317 328 321 319 317 316 312 312 308 306 298 299 305 306 309 311 309 311 314 314 317 318 318 312 309 308 308
228 234 237 227 232 232 231 243 239 248 260 259 252 269 262 264 278 290 300 305 304 306 313 319 319 318 313 311 311 308 306 305 302 304 308 309 309 311 313 316 318 319 319 317 316 311 306 305 308
223 236 242 242 233 231 230 239 245 252 263 262 264 273 273 277 285 289 287 293 298 302 311 311 314 318 312 312 311 306 308 307 305 302 303 309 310 313 316 320 322 320 319 319 318 313 311 310 311
234 235 242 246 242 244 235 238 251 245 262 271 275 278 275 268 273 282 284 285 287 292 302 304 302 313 313 311 307 308 310 313 312 306 306 308 309 313 317 320 321 319 319 320 316 313 313 314 313
238 238 241 248 244 241 244 240 243 248 253 264 268 269 265 259 265 280 275 275 288 299 301 300 305 311 315 318 313 310 310 312 313 314 310 309 312 316 318 320 319 318 318 316 314 311 312 313 315
239 242 241 245 246 237 235 241 246 246 250 253 262 267 263 257 268 272 271 281 298 302 302 300 304 311 313 318 313 311 315 314 310 314 311 312 314 318 318 319 318 317 318 315 312 308 311 312 314
233 236 241 242 246 248 242 244 256 251 249 240 262 250 249 265 257 263 271 296 303 301 302 301 305 308 320 318 316 314 316 317 317 312 312 313 316 318 318 320 319 319 317 315 312 311 310 312 315
239 241 242 244 245 250 249 252 253 255 249 250 254 257 264 268 278 294 300 295 300 308 302 312 316 323 324 320 313 313 312 313 311 312 314 316 318 319 319 319 317 316 316 315 312 311 312 315 315
230 237 241 243 248 254 257 249 252 257 256 260 266 270 275 284 289 290 289 292 308 306 303 313 313 322 320 317 313 310 311 311 312 315 317 319 320 319 319 318 317 314 312 309 309 314 315 314 315